#timestamp,LO_Frequency,Hit 
1500321615.0,286046369.6,N
1500321615.9,286046369.6,N
1500321635.8,286046371.9,N
1500321655.6,286046369.7,N
1500321675.4,286046371.8,N
1500321695.3,286046369.4,N
1500321715.1,286046369.4,N
1500321735.8,286046372.4,N
1500321755.7,286046372.2,N
1500321775.5,286046371.4,N
1500321795.4,286046371.7,N
1500321815.2,286046371.5,N
1500321835.0,286046371.0,N
1500321835.9,286046371.0,N
1500321855.8,286046370.9,N
1500321875.6,286046373.4,N
1500321895.5,286046373.0,N
1500321915.3,286046372.8,N
1500321935.1,286046373.5,N
1500321955.9,286046371.8,N
1500321975.7,286046372.0,N
1500321995.5,286046372.4,N
1500322015.4,286046372.1,N
1500322035.2,286046371.9,N
1500322055.1,286046371.4,N
1500322056.0,286046371.4,N
1500322075.8,286046371.4,N
1500322095.6,286046373.7,N
1500322115.5,286046373.8,N
1500322135.3,286046373.2,N
1500322155.1,286046372.7,N
1500322175.9,286046375.2,N
1500322195.7,286046375.5,N
1500322215.6,286046372.5,N
1500322235.4,286046375.0,N
1500322255.2,286046375.4,N
1500322275.1,286046373.1,N
1500322276.0,286046373.1,N
1500322295.8,286046373.8,N
1500322315.7,286046373.1,N
1500322335.5,286046375.4,N
1500322355.3,286046374.2,N
1500322375.2,286046377.0,N
1500322395.0,286046375.3,N
1500322395.9,286046375.3,N
1500322415.7,286046372.7,N
1500322435.6,286046374.8,N
1500322455.4,286046375.5,N
1500322475.3,286046374.6,N
1500322495.1,286046374.8,N
1500322496.0,286046374.8,N
1500322515.8,286046372.6,N
1500322535.7,286046375.2,N
1500322555.5,286046375.4,N
1500322575.4,286046374.6,N
1500322595.2,286046374.4,N
1500322615.0,286046374.3,N
1500322615.9,286046374.3,N
1500322635.8,286046374.3,N
1500322655.6,286046377.2,N
1500322675.4,286046376.8,N
1500322695.3,286046377.1,N
1500322715.1,286046377.2,N
1500322735.9,286046374.1,N
1500322755.7,286046376.5,N
1500322775.5,286046376.4,N
1500322795.4,286046376.3,N
1500322815.2,286046376.6,N
1500322835.0,286046377.2,N
1500322836.0,286046377.2,N
1500322855.8,286046374.8,N
1500322875.6,286046375.6,N
1500322895.5,286046374.9,N
1500322915.3,286046375.3,N
1500322935.1,286046375.6,N
1500322955.9,286046375.1,N
1500322975.7,286046372.5,N
1500322995.6,286046374.3,N
1500323015.4,286046374.5,N
1500323035.2,286046377.2,N
1500323055.1,286046377.2,N
1500323056.0,286046377.2,N
1500323075.8,286046374.8,N
1500323095.6,286046377.2,N
1500323115.5,286046374.5,N
1500323135.3,286046374.1,N
1500323155.2,286046376.5,N
1500323175.9,286046377.1,N
1500323195.7,286046374.3,N
1500323215.6,286046374.7,N
1500323235.4,286046374.7,N
1500323255.3,286046374.7,N
1500323275.1,286046374.9,N
1500323295.8,286046375.4,N
1500323315.7,286046375.6,N
1500323335.5,286046375.2,N
1500323355.4,286046372.6,N
1500323375.2,286046373.0,N
1500323395.0,286046375.1,N
1500323395.9,286046375.1,N
1500323415.8,286046375.2,N
1500323435.6,286046377.2,N
1500323455.5,286046374.8,N
1500323475.3,286046374.1,N
1500323495.1,286046374.4,N
1500323515.9,286046374.1,N
1500323535.7,286046374.9,N
1500323555.6,286046377.1,N
1500323575.4,286046376.9,N
1500323595.2,286046374.5,N
1500323615.1,286046374.1,N
1500323616.0,286046374.1,N
1500323635.8,286046374.9,N
1500323655.7,286046374.3,N
1500323675.5,286046374.1,N
1500323695.3,286046374.5,N
1500323715.2,286046374.8,N
1500323735.0,286046378.0,N
1500323735.9,286046378.0,N
1500323785.8,286046383.1,Y
1500323795.7,286046642.2,N
1500323815.5,286046997.1,N
1500323835.4,286046995.2,N
1500323855.2,286046996.1,N
1500323875.1,286046996.3,N
1500323876.0,286046996.3,N
1500323895.8,286046996.2,N
1500323915.6,286046995.1,N
1500323935.5,286046997.2,N
1500323955.3,286046996.8,N
1500323975.1,286046995.4,N
1500323995.9,286046997.6,N
1500324015.7,286046993.3,N
1500324035.6,286046993.5,N
1500324085.4,286046996.3,Y
1500324095.3,286046995.4,N
1500324115.2,286046999.5,N
1500324135.0,286046999.1,N
1500324135.9,286046999.1,N
1500324155.8,286046999.5,N
1500324175.6,286046996.9,N
1500324195.4,286046997.0,N
1500324215.3,286046996.9,N
1500324235.1,286046997.4,N
1500324255.9,286046997.5,N
1500324275.7,286046997.4,N
1500324295.5,286046997.3,N
1500324315.4,286046996.7,N
1500324335.2,286046995.4,N
1500324355.0,286046997.0,N
1500324355.9,286046997.0,N
1500324375.8,286046996.5,N
1500324395.6,286046997.9,N
1500324415.5,286046997.7,N
1500324435.3,286046999.1,N
1500324455.1,286046997.2,N
1500324475.9,286046997.2,N
1500324495.7,286046997.0,N
1500324515.6,286046997.4,N
1500324535.4,286046997.9,N
1500324555.2,286046996.7,N
1500324575.1,286046999.4,N
1500324576.0,286046999.4,N
1500324595.8,286046999.2,N
1500324615.6,286046997.1,N
1500324635.5,286046997.7,N
1500324655.3,286046997.5,N
1500324675.2,286046995.3,N
1500324695.9,286046997.1,N
1500324715.7,286046995.5,N
1500324735.6,286046995.2,N
1500324755.4,286046997.6,N
1500324775.2,286046995.2,N
1500324795.1,286046997.8,N
1500324796.0,286046997.8,N
1500324815.8,286046997.7,N
1500324835.7,286046997.3,N
1500324855.5,286046997.8,N
1500324875.3,286046996.9,N
1500324895.2,286046999.3,N
1500324915.0,286046999.4,N
1500324915.9,286046999.4,N
1500324935.7,286046999.1,N
1500324955.6,286046999.3,N
1500324975.4,286046998.5,N
1500324995.3,286046999.9,N
1500325015.1,286047000.2,N
1500325016.0,286047000.2,N
1500325035.8,286047001.1,N
1500325055.7,286047000.0,N
1500325075.5,286047000.9,N
1500325095.3,286046998.6,N
1500325115.2,286046998.3,N
1500325135.0,286046998.4,N
1500325135.9,286046998.4,N
1500325155.8,286046998.4,N
1500325175.6,286046998.7,N
1500325195.4,286046999.2,N
